Showing default

S-NET A, 43188

Orbit data source: Space-Track

S-NET A, 43188 is a payload satellite owned by TUB (DE) in SSO that was launched on Thu, 01 Feb 2018 UTC via a SOYUZ-2-1A launch vehicle from the Vostochny Cosmodrome (VOSTO). Payload-class satellites include a variety of spacecraft equipped with specific instruments for various scientific and technological missions. These include communications satellites like Starlink; space stations such as the ISS; scientific satellites like the Hubble; Earth observation satellites from companies like Planet Labs, Umbra, and HawkEye 360; GPS; miniature CubeSats for education and research; and military/defense satellites.

Loading next visibility...
Identifier
43188, 2018-014J
Orbit
SSO
Country
Flag of DEDE / GER
Related business
Manufacturer
TUB
Mission
Operational Amateur Com/Tech
Bus & Motor
TUBIX10, Unknown motor
Mass
8 kg wet, 8 kg dry
Launch date (UTC)
2018-02-01 (8 years ago)
Launch vehicle
SOYUZ-2-1A
Launch site
Vostochny Cosmodrome (VOSTO)
Object type
Payload
Rocket body
Debris
Shape & HBR
Box, 1.0 m
Radar Cross Section
0.086 m², Medium (>0.1 m² and < 1m²)

Expand to show TLE details & history
Last TLE update: 11 hours ago

TLE from 11 hours ago
0 S-NET A
1 43188U 18014J   25300.22281443  .00007210  00000-0  40565-3 0  9997
2 43188  97.5485 201.8638 0011251  97.7062 262.5448 15.13505417423487
Epoch: 2025-10-27T05:20Z
TLE epoch observation values (Epoch: 2025-10-27T05:20:51.166Z)
Latitude
0.00004°
Longitude
85.82286°
Altitude
529.614 km
Speed
7.598 km/s
True Right ascension
13h 27m 27s
True Declination
0° 00' 00"
Sunlit
Object was in daylight at epoch
Visualization orbit readout
Latitude
Unknown
Longitude
Unknown
Altitude
Unknown
Speed
Unknown
Apparent Right ascension
Unknown
Apparent Declination
Unknown
Sunlit
N/A
Visualization observer readout
Local Sidereal Time
11:22:15
Azimuth
Unknown
Elevation
Unknown
Doppler factor
Unknown
Orbital elements
Apogee altitude
530.264 km
Perigee altitude
514.736 km
Semi-major axis
6,900.637 km
Eccentricity
0.00113
Inclination
97.5485°
RAAN
201.8638°
Arg. of periapsis
97.7062°
True anomaly
262.41699°
Mean anomaly
262.5448°
Eccentric anomaly
262.48089°
Mean motion
3.78625 °/min
Orbital period
95.08 mins
BSTAR
0.00040565
Loading maneuver chart data...
Computing Atmospheric mass density...
Loading historical data...
Loading historical data...
Loading historical data...
Loading historical data...
Loading historical data...
Loading historical data...
Loading historical data...

Documentation

Showing up to 5 results
|